• In Hungary
  • List of Countries
  • For 7 days
  • Water Temperature
  • Satellite Maps
  • Weather Map
  • News
  • Weather Widgets
  • user-avatar
    Login

    Hourly Weather Orange Walk

    Today, 23 February, Friday

    Time Temperature Precipitation Wind Pressure Humidity
    00:00 +24°C° 0 mm 2 mps 762 mmHg 96%
    01:00 +24°C° 0 mm 2 mps 762 mmHg 96%
    02:00 +24°C° 0 mm 2 mps 762 mmHg 96%
    03:00 +23°C° 0 mm 2 mps 761 mmHg 96%
    04:00 +23°C° 0 mm 2 mps 762 mmHg 96%
    05:00 +23°C° 0 mm 2 mps 762 mmHg 97%
    06:00 +23°C° 0 mm 2 mps 762 mmHg 96%
    07:00 +25°C° 0 mm 2 mps 762 mmHg 89%
    08:00 +27°C° 0 mm 3 mps 763 mmHg 82%
    09:00 +28°C° 0 mm 3 mps 763 mmHg 75%
    10:00 +30°C° 0.1 mm 3 mps 763 mmHg 68%
    11:00 +32°C° 0.1 mm 4 mps 762 mmHg 62%
    12:00 +33°C° 0.1 mm 4 mps 762 mmHg 56%
    13:00 +32°C° 0.3 mm 4 mps 762 mmHg 58%
    14:00 +31°C° 0.3 mm 3 mps 761 mmHg 60%
    15:00 +31°C° 0.3 mm 3 mps 761 mmHg 63%
    16:00 +29°C° 0.4 mm 3 mps 761 mmHg 71%
    17:00 +27°C° 0.4 mm 2 mps 761 mmHg 79%
    18:00 +26°C° 0.4 mm 2 mps 761 mmHg 87%
    19:00 +25°C° 0 mm 2 mps 761 mmHg 90%
    20:00 +24°C° 0 mm 2 mps 761 mmHg 93%
    21:00 +24°C° 0 mm 2 mps 761 mmHg 96%
    22:00 +24°C° 0 mm 1 mps 761 mmHg 96%
    23:00 +23°C° 0 mm 1 mps 761 mmHg 97%

    Tomorrow, 24 February, Saturday

    Time Temperature Precipitation Wind Pressure Humidity
    00:00 +23°C° 0 mm 1 mps 761 mmHg 97%
    01:00 +23°C° 0 mm 1 mps 761 mmHg 97%
    02:00 +23°C° 0 mm 1 mps 760 mmHg 98%
    03:00 +23°C° 0 mm 1 mps 760 mmHg 98%
    04:00 +23°C° 0.1 mm 1 mps 760 mmHg 98%
    05:00 +23°C° 0.1 mm 1 mps 760 mmHg 98%
    06:00 +23°C° 0.1 mm 1 mps 760 mmHg 98%
    07:00 +24°C° 0.2 mm 2 mps 760 mmHg 93%
    08:00 +26°C° 0.2 mm 2 mps 761 mmHg 88%
    09:00 +27°C° 0.2 mm 2 mps 761 mmHg 83%
    10:00 +29°C° 0.2 mm 3 mps 761 mmHg 74%
    11:00 +30°C° 0.2 mm 3 mps 761 mmHg 65%
    12:00 +31°C° 0.2 mm 3 mps 760 mmHg 57%
    13:00 +33°C° 0 mm 3 mps 760 mmHg 56%
    14:00 +33°C° 0 mm 3 mps 759 mmHg 54%
    15:00 +33°C° 0 mm 3 mps 758 mmHg 53%
    16:00 +30°C° 0 mm 3 mps 758 mmHg 61%
    17:00 +28°C° 0 mm 3 mps 758 mmHg 70%
    18:00 +26°C° 0 mm 2 mps 759 mmHg 78%
    19:00 +25°C° 0 mm 2 mps 759 mmHg 83%
    20:00 +24°C° 0 mm 2 mps 760 mmHg 89%
    21:00 +23°C° 0 mm 2 mps 760 mmHg 94%
    22:00 +23°C° 0 mm 2 mps 760 mmHg 95%
    23:00 +23°C° 0 mm 2 mps 760 mmHg 95%

    Day after tomorrow, 25 February, Sunday

    Time Temperature Precipitation Wind Pressure Humidity
    00:00 +23°C° 0 mm 2 mps 760 mmHg 96%
    01:00 +23°C° 0 mm 2 mps 760 mmHg 96%
    02:00 +23°C° 0 mm 2 mps 759 mmHg 96%
    03:00 +23°C° 0 mm 2 mps 759 mmHg 96%
    04:00 +23°C° 0.1 mm 2 mps 759 mmHg 96%
    05:00 +23°C° 0.1 mm 2 mps 759 mmHg 97%
    06:00 +23°C° 0.1 mm 2 mps 759 mmHg 97%
    07:00 +25°C° 0.1 mm 2 mps 760 mmHg 89%
    08:00 +27°C° 0.1 mm 3 mps 760 mmHg 80%
    09:00 +29°C° 0.1 mm 4 mps 761 mmHg 72%
    10:00 +30°C° 0 mm 4 mps 761 mmHg 66%
    11:00 +32°C° 0 mm 4 mps 760 mmHg 60%
    12:00 +33°C° 0 mm 4 mps 760 mmHg 54%
    13:00 +33°C° 0 mm 4 mps 759 mmHg 53%
    14:00 +33°C° 0 mm 4 mps 759 mmHg 53%
    15:00 +33°C° 0 mm 4 mps 758 mmHg 53%
    16:00 +30°C° 0 mm 3 mps 758 mmHg 61%
    17:00 +28°C° 0 mm 3 mps 759 mmHg 70%
    18:00 +26°C° 0 mm 2 mps 759 mmHg 78%
    19:00 +26°C° 0 mm 2 mps 759 mmHg 83%
    20:00 +25°C° 0 mm 2 mps 760 mmHg 89%
    21:00 +24°C° 0 mm 2 mps 760 mmHg 94%
    22:00 +24°C° 0 mm 2 mps 760 mmHg 95%
    23:00 +23°C° 0 mm 2 mps 760 mmHg 96%

    26 February, Monday

    Time Temperature Precipitation Wind Pressure Humidity
    00:00 +23°C° 0 mm 1 mps 760 mmHg 97%
    01:00 +23°C° 0 mm 1 mps 760 mmHg 96%
    02:00 +23°C° 0 mm 1 mps 760 mmHg 95%
    03:00 +24°C° 0 mm 1 mps 760 mmHg 95%
    04:00 +24°C° 0.1 mm 1 mps 760 mmHg 94%
    05:00 +24°C° 0.1 mm 1 mps 760 mmHg 94%
    06:00 +24°C° 0.1 mm 2 mps 760 mmHg 94%
    07:00 +26°C° 0.1 mm 2 mps 761 mmHg 86%
    08:00 +27°C° 0.1 mm 3 mps 761 mmHg 79%
    09:00 +29°C° 0.1 mm 3 mps 762 mmHg 72%
    10:00 +30°C° 0.1 mm 3 mps 762 mmHg 66%
    11:00 +32°C° 0.1 mm 4 mps 761 mmHg 61%
    12:00 +33°C° 0.1 mm 4 mps 761 mmHg 55%
    13:00 +33°C° 0.1 mm 4 mps 760 mmHg 55%
    14:00 +33°C° 0.1 mm 4 mps 760 mmHg 55%
    15:00 +33°C° 0.1 mm 4 mps 759 mmHg 55%
    16:00 +30°C° 0 mm 3 mps 759 mmHg 63%
    17:00 +28°C° 0 mm 3 mps 760 mmHg 72%
    18:00 +27°C° 0 mm 2 mps 760 mmHg 80%
    19:00 +26°C° 0 mm 2 mps 761 mmHg 85%
    20:00 +25°C° 0 mm 2 mps 761 mmHg 89%
    21:00 +24°C° 0 mm 2 mps 762 mmHg 94%
    22:00 +24°C° 0 mm 2 mps 761 mmHg 95%
    23:00 +23°C° 0 mm 2 mps 761 mmHg 96%

    27 February, Tuesday

    Time Temperature Precipitation Wind Pressure Humidity
    00:00 +23°C° 0 mm 2 mps 761 mmHg 97%
    01:00 +23°C° 0 mm 2 mps 761 mmHg 97%
    02:00 +23°C° 0 mm 2 mps 761 mmHg 96%
    03:00 +23°C° 0 mm 2 mps 760 mmHg 96%
    04:00 +23°C° 0 mm 1 mps 761 mmHg 97%
    05:00 +23°C° 0 mm 1 mps 761 mmHg 97%
    06:00 +22°C° 0 mm 1 mps 761 mmHg 97%
    07:00 +24°C° 0 mm 2 mps 761 mmHg 89%
    08:00 +26°C° 0 mm 2 mps 762 mmHg 80%
    09:00 +28°C° 0 mm 2 mps 762 mmHg 72%
    10:00 +30°C° 0 mm 3 mps 762 mmHg 64%
    11:00 +31°C° 0 mm 3 mps 762 mmHg 56%
    12:00 +33°C° 0 mm 3 mps 761 mmHg 48%
    13:00 +33°C° 0 mm 3 mps 761 mmHg 47%
    14:00 +33°C° 0 mm 3 mps 760 mmHg 46%
    15:00 +33°C° 0 mm 3 mps 759 mmHg 45%
    16:00 +30°C° 0 mm 3 mps 759 mmHg 54%
    17:00 +28°C° 0 mm 2 mps 759 mmHg 63%
    18:00 +26°C° 0 mm 2 mps 760 mmHg 72%
    19:00 +25°C° 0 mm 2 mps 760 mmHg 78%
    20:00 +24°C° 0 mm 2 mps 760 mmHg 85%
    21:00 +23°C° 0 mm 1 mps 761 mmHg 92%
    22:00 +23°C° 0 mm 1 mps 761 mmHg 93%
    23:00 +23°C° 0 mm 1 mps 760 mmHg 95%

    28 February, Wednesday

    Time Temperature Precipitation Wind Pressure Humidity
    00:00 +22°C° 0 mm 1 mps 760 mmHg 97%
    01:00 +22°C° 0 mm 1 mps 760 mmHg 97%
    02:00 +22°C° 0 mm 1 mps 759 mmHg 97%
    03:00 +22°C° 0 mm 1 mps 759 mmHg 97%
    04:00 +22°C° 0 mm 1 mps 759 mmHg 97%
    05:00 +22°C° 0 mm 1 mps 759 mmHg 97%
    06:00 +22°C° 0 mm 1 mps 759 mmHg 97%
    07:00 +24°C° 0.1 mm 2 mps 759 mmHg 90%
    08:00 +26°C° 0.1 mm 2 mps 760 mmHg 83%
    09:00 +28°C° 0.1 mm 3 mps 760 mmHg 76%
    10:00 +29°C° 0.2 mm 3 mps 759 mmHg 69%
    11:00 +30°C° 0.2 mm 3 mps 759 mmHg 63%
    12:00 +31°C° 0.2 mm 3 mps 759 mmHg 57%
    13:00 +31°C° 0.1 mm 3 mps 758 mmHg 57%
    14:00 +31°C° 0.1 mm 3 mps 757 mmHg 56%
    15:00 +31°C° 0.1 mm 3 mps 757 mmHg 55%
    16:00 +30°C° 0 mm 3 mps 757 mmHg 63%
    17:00 +28°C° 0 mm 3 mps 757 mmHg 70%
    18:00 +27°C° 0 mm 2 mps 757 mmHg 77%
    19:00 +26°C° 0 mm 2 mps 758 mmHg 82%
    20:00 +25°C° 0 mm 2 mps 758 mmHg 88%
    21:00 +24°C° 0 mm 2 mps 758 mmHg 93%
    22:00 +23°C° 0 mm 2 mps 758 mmHg 94%
    23:00 +23°C° 0 mm 2 mps 758 mmHg 94%
    Show more